Date String (YYYY-MM-DD hh:mm:ss) UTC,Instrument flags,Ambient pressure (hPa),Sample flow (lpm),Bypass flow (lpm),Sample temperature (°C),Ambient temperature (°C),ASC tube jacket temperature (°C),LED temperature (°C),Box temperature (°C),Sample RH (%),Span deviation,Mass concentration (μg/m³),Mass concentration (μg/m³),Mass concentration (μg/m³)
DateTimeUTC,F1_M11,P_M11,Q1_M11,Q2_M11,T1_M11,T2_M11,T3_M11,T4_M11,T5_M11,U1_M11,ZSPAN_M11,X0_M11,X2_M11,X1_M11
2023-02-15 04:00:00,,0812.7,4.99,0.00,22.5,21.1,00.0,31.4,24.3,07.3,0000.0,0006.58,0001.41,0000.99
2023-02-15 04:01:00,,0812.7,5.01,0.00,22.6,22.1,00.0,31.3,24.6,06.9,0000.0,0007.10,0001.42,0000.99
2023-02-15 04:02:00,,0812.7,4.98,0.00,22.7,22.9,00.0,31.4,24.8,06.7,0000.0,0006.90,0001.46,0000.99
2023-02-15 04:03:00,,0812.7,5.03,0.00,22.8,22.9,00.0,31.4,24.8,06.6,0000.0,0005.05,0001.44,0000.98
2023-02-15 04:04:00,,0812.7,4.99,0.00,22.8,22.5,00.0,31.5,24.7,06.6,0000.0,0004.88,0001.41,0000.97
2023-02-15 04:05:00,,0812.7,5.01,0.00,22.8,22.1,00.0,31.5,24.6,06.8,0000.0,0004.12,0001.39,0000.95
2023-02-15 04:06:00,,0812.7,5.00,0.00,22.8,21.8,00.0,31.5,24.6,07.0,0000.0,0003.35,0001.34,0000.94
2023-02-15 04:07:00,,0812.7,5.01,0.00,22.7,21.5,00.0,31.5,24.5,07.1,0000.0,0002.95,0001.29,0000.93
2023-02-15 04:08:00,,0812.7,4.98,0.00,22.7,21.3,00.0,31.5,24.5,07.6,0000.0,0002.90,0001.28,0000.93
2023-02-15 04:09:00,,0812.8,5.00,0.00,22.7,21.1,00.0,31.5,24.4,07.9,0000.0,0003.03,0001.30,0000.94
2023-02-15 04:10:00,,0812.8,5.00,0.00,22.6,20.9,00.0,31.5,24.3,08.3,0000.0,0003.29,0001.34,0000.96
2023-02-15 04:11:00,,0812.8,5.00,0.00,22.6,20.8,00.0,31.5,24.3,08.6,0000.0,0003.89,0001.41,0000.98
2023-02-15 04:12:00,,0812.8,5.00,0.00,22.6,20.9,00.0,31.5,24.3,08.2,0000.0,0003.22,0001.41,0001.01
2023-02-15 04:13:00,,0812.9,5.03,0.00,22.6,21.7,00.0,31.4,24.5,08.6,0000.0,0003.89,0001.44,0001.03
2023-02-15 04:14:00,,0813.0,5.01,0.00,22.7,22.7,00.0,31.4,24.8,08.9,0000.0,0005.68,0001.52,0001.06
2023-02-15 04:15:00,,0813.1,4.96,0.00,22.9,23.5,00.0,31.5,25.0,08.8,0000.0,0005.92,0001.62,0001.09
2023-02-15 04:16:00,,0812.9,5.02,0.00,22.9,23.1,00.0,31.5,24.9,08.7,0000.0,0006.38,0001.65,0001.12
2023-02-15 04:17:00,,0813.0,5.01,0.00,22.9,22.6,00.0,31.6,24.8,08.9,0000.0,0006.92,0001.71,0001.15
2023-02-15 04:18:00,,0813.2,5.00,0.00,22.9,22.2,00.0,31.6,24.7,08.9,0000.0,0007.08,0001.82,0001.18
2023-02-15 04:19:00,,0813.1,4.97,0.00,22.9,21.9,00.0,31.6,24.7,09.0,0000.0,0007.17,0001.87,0001.21
2023-02-15 04:20:00,,0813.2,5.01,0.00,22.9,21.7,00.0,31.7,24.6,09.1,0000.0,0007.25,0001.90,0001.24
2023-02-15 04:21:00,,0813.2,4.97,0.00,22.8,21.5,00.0,31.7,24.6,09.0,0000.0,0007.93,0001.95,0001.25
2023-02-15 04:22:00,,0813.3,4.97,0.00,22.8,21.4,00.0,31.7,24.6,08.8,0000.0,0007.65,0001.92,0001.25
2023-02-15 04:23:00,,0813.3,5.00,0.00,22.8,21.2,00.0,31.7,24.5,08.6,0000.0,0007.91,0001.94,0001.25
2023-02-15 04:24:00,,0813.3,5.01,0.00,22.8,21.2,00.0,31.7,24.5,08.4,0000.0,0007.53,0001.90,0001.27
2023-02-15 04:25:00,,0813.3,5.01,0.00,22.7,21.1,00.0,31.6,24.5,08.3,0000.0,0006.24,0001.86,0001.27
2023-02-15 04:26:00,,0813.3,5.00,0.00,22.7,21.1,00.0,31.6,24.5,08.4,0000.0,0005.75,0001.81,0001.27
2023-02-15 04:27:00,,0813.3,5.00,0.00,22.7,21.1,00.0,31.6,24.5,08.5,0000.0,0005.38,0001.79,0001.26
2023-02-15 04:28:00,,0813.4,4.96,0.00,22.7,21.0,00.0,31.6,24.5,08.7,0000.0,0004.92,0001.77,0001.25
2023-02-15 04:29:00,,0813.4,5.00,0.00,22.7,21.0,00.0,31.6,24.4,08.9,0000.0,0004.64,0001.66,0001.22
2023-02-15 04:30:00,,0813.4,5.01,0.00,22.7,21.0,00.0,31.6,24.4,08.8,0000.0,0004.56,0001.62,0001.21
2023-02-15 04:31:00,,0813.5,4.99,0.00,22.6,21.0,00.0,31.6,24.4,08.9,0000.0,0004.34,0001.57,0001.20
2023-02-15 04:32:00,,0813.5,4.99,0.00,22.7,21.8,00.0,31.5,24.6,08.9,0000.0,0003.14,0001.53,0001.19
2023-02-15 04:33:00,,0813.6,5.01,0.00,22.8,22.8,00.0,31.5,24.8,08.6,0000.0,0003.09,0001.55,0001.20
2023-02-15 04:34:00,,0813.5,5.02,0.00,22.9,23.2,00.0,31.5,24.9,08.5,0000.0,0002.54,0001.56,0001.21
2023-02-15 04:35:00,,0813.5,5.00,0.00,22.9,22.7,00.0,31.6,24.9,08.5,0000.0,0002.45,0001.56,0001.21
2023-02-15 04:36:00,,0813.6,5.00,0.00,22.9,22.2,00.0,31.6,24.8,08.4,0000.0,0002.45,0001.57,0001.21
2023-02-15 04:37:00,,0813.6,5.01,0.00,22.9,21.9,00.0,31.7,24.7,08.5,0000.0,0002.56,0001.59,0001.23
2023-02-15 04:38:00,,0813.5,4.99,0.00,22.8,21.6,00.0,31.7,24.6,08.5,0000.0,0002.66,0001.62,0001.26
2023-02-15 04:39:00,,0813.6,5.02,0.00,22.8,21.4,00.0,31.7,24.6,08.5,0000.0,0002.76,0001.64,0001.29
2023-02-15 04:40:00,,0813.6,5.00,0.00,22.8,21.2,00.0,31.7,24.5,08.4,0000.0,0002.84,0001.67,0001.30
2023-02-15 04:41:00,,0813.8,4.98,0.00,22.7,21.0,00.0,31.7,24.4,08.3,0000.0,0002.89,0001.69,0001.31
2023-02-15 04:42:00,,0814.2,5.00,0.00,22.7,20.9,00.0,31.6,24.3,08.4,0000.0,0003.03,0001.74,0001.31
2023-02-15 04:43:00,,0814.1,5.01,0.00,22.7,21.5,00.0,31.6,24.5,08.5,0000.0,0002.96,0001.74,0001.33
2023-02-15 04:44:00,,0813.9,5.04,0.00,22.8,22.5,00.0,31.6,24.8,08.6,0000.0,0002.86,0001.72,0001.34
2023-02-15 04:45:00,,0813.9,5.03,0.00,22.9,23.2,00.0,31.6,24.9,08.6,0000.0,0002.95,0001.72,0001.34
2023-02-15 04:46:00,,0813.9,5.00,0.00,23.0,22.8,00.0,31.7,24.9,08.7,0000.0,0003.03,0001.75,0001.34
2023-02-15 04:47:00,,0814.0,5.00,0.00,22.9,22.3,00.0,31.7,24.7,08.8,0000.0,0003.03,0001.74,0001.34
2023-02-15 04:48:00,,0813.9,5.01,0.00,22.9,21.8,00.0,31.7,24.6,08.9,0000.0,0002.93,0001.71,0001.32
2023-02-15 04:49:00,,0813.9,4.99,0.00,22.9,21.4,00.0,31.7,24.5,09.0,0000.0,0002.79,0001.68,0001.30
2023-02-15 04:50:00,,0813.9,5.00,0.00,22.8,21.1,00.0,31.7,24.4,09.0,0000.0,0002.98,0001.69,0001.29
2023-02-15 04:51:00,,0814.2,4.98,0.00,22.7,21.0,00.0,31.7,24.3,09.0,0000.0,0003.11,0001.67,0001.28
2023-02-15 04:52:00,,0814.0,4.99,0.00,22.7,20.8,00.0,31.7,24.3,09.1,0000.0,0003.06,0001.65,0001.28
2023-02-15 04:53:00,,0814.0,5.00,0.00,22.6,20.7,00.0,31.7,24.2,09.2,0000.0,0002.90,0001.60,0001.28
2023-02-15 04:54:00,,0814.0,5.00,0.00,22.6,20.6,00.0,31.6,24.1,09.3,0000.0,0003.00,0001.61,0001.28
2023-02-15 04:55:00,,0814.0,4.97,0.00,22.6,21.5,00.0,31.6,24.4,09.3,0000.0,0004.30,0001.63,0001.27
2023-02-15 04:56:00,,0814.0,4.98,0.00,22.8,22.6,00.0,31.5,24.7,09.3,0000.0,0005.31,0001.62,0001.26
2023-02-15 04:57:00,,0814.1,5.02,0.00,22.8,23.0,00.0,31.6,24.8,09.3,0000.0,0005.25,0001.59,0001.25
2023-02-15 04:58:00,,0814.1,4.98,0.00,22.9,22.5,00.0,31.6,24.7,09.2,0000.0,0005.23,0001.57,0001.24
2023-02-15 04:59:00,,0814.1,4.98,0.00,22.8,22.0,00.0,31.6,24.6,09.3,0000.0,0005.27,0001.59,0001.24
